STARLINK-3795, 52264

Orbit data source: Space-Track

STARLINK-3795, 52264 is a payload satellite owned by SpaceX/Seattle (US) in LEO that was launched on Thu, 21 Apr 2022 UTC via an FALCON 9 launch vehicle from the Air Force Eastern Test Range (AFETR). Payload-class satellites include a variety of spacecraft equipped with specific instruments for various scientific and technological missions. These include communications satellites like Starlink; space stations such as the ISS; scientific satellites like the Hubble; Earth observation satellites from companies like Planet Labs, Umbra, and HawkEye 360; GPS; miniature CubeSats for education and research; and military/defense satellites.

Loading next visibility...
Identifier
52264, 2022-041D
Orbit
LEO
Country
Flag of USUS
Related business
Manufacturer
SpaceX/Seattle
Mission
Operational Commercial Communications
Bus & Motor
STARLINK, Unknown motor
Mass
297 kg wet, ~275 kg dry
Launch date (UTC)
2022-04-21 (4 years ago)
Launch vehicle
FALCON 9
Launch site
Air Force Eastern Test Range (AFETR)
Object type
Payload
Rocket body
Debris
Shape & HBR
Box + 1 Pan, 10.1 m
Radar Cross Section
11.087 m², Large (>1 m²)

Expand to show TLE details & history
Last TLE update: 10 hours ago

TLE from 10 hours ago
0 STARLINK-3795
1 52264U 22041D   26130.17903692 -.00000497  00000-0 -13119-4 0  9998
2 52264  53.2160 193.0838 0001277  80.8743 279.2394 15.08837922223645
Epoch: 2026-05-10T04:17Z
TLE epoch observation values (Epoch: 2026-05-10T04:17:48.789Z)
Latitude
-0.00001°
Longitude
-99.35533°
Altitude
540.505 km
Speed
7.593 km/s
True Right ascension
12h 52m 20s
True Declination
0° 00' 00"
Sunlit
Object was in full shadow at epoch
Visualization orbit readout
Latitude
Unknown
Longitude
Unknown
Altitude
Unknown
Speed
Unknown
Apparent Right ascension
Unknown
Apparent Declination
Unknown
Sunlit
N/A
Visualization observer readout
Local Sidereal Time
22:05:21
Azimuth
Unknown
Elevation
Unknown
Doppler factor
Unknown
Orbital elements
Apogee altitude
540.878 km
Perigee altitude
539.111 km
Semi-major axis
6,918.132 km
Eccentricity
0.00013
Inclination
53.216°
RAAN
193.0838°
Arg. of periapsis
80.8743°
True anomaly
279.22496°
Mean anomaly
279.2394°
Eccentric anomaly
279.23218°
Mean motion
3.7719 °/min
Orbital period
95.44 mins
BSTAR
-0.000013119
Loading maneuver chart data...
Computing Atmospheric mass density...
Loading historical data...
Loading historical data...
Loading historical data...
Loading historical data...
Loading historical data...
Loading historical data...
Loading historical data...

Documentation

Showing up to 5 results
|